Weather History for K4BM - October, 2013

Change the Weather History Date:

Tuesday, October 29, 2013

  Actual Average (KAFF) Record (KAFF)
Temperature  
Mean Temperature 34 °F -  
Max Temperature 39 °F 52 °F 76 °F (2010)
Min Temperature 28 °F 30 °F 19 °F (2002)
Degree Days  
Heating Degree Days 32    
Moisture  
Dew Point 16 °F    
Average Humidity 55    
Maximum Humidity 93    
Minimum Humidity 35    
Precipitation  
Precipitation 0.00 in - - ()
Sea Level Pressure  
Sea Level Pressure 30.04 in    
Wind  
Wind Speed 9 mph (SSW)    
Max Wind Speed 15 mph    
Max Gust Speed 26 mph    
Visibility 9 miles    
Events Snow , Thunderstorm    
Averages and records for this station are not official NWS values.
T = Trace of Precipitation, MM = Missing Value Source: NWS Daily Summary

Daily Weather History Graph

Daily Weather History Graph

Search for Another Location

Airport or City:

Trip Planner

Search our weather history database for the weather conditions in past years. The results will help you decide how hot, cold, wet, or windy it might be!

Date:

Astronomy

Oct. 29, 2013 Rise Set
Actual Time 7:26 AM MDT 6:04 PM MDT
Civil Twilight 6:59 AM MDT 6:31 PM MDT
Nautical Twilight 6:27 AM MDT 7:03 PM MDT
Astronomical Twilight 5:56 AM MDT 7:34 PM MDT
Moon 2:21 AM MDT (10/29) 3:17 PM MDT (10/29)
Length of Visible Light 11h 32m
Length of Day
10h 37m
Waning Crescent, 24% of the Moon is Illuminated
Oct 29
Waning Crescent
Nov 3
New
Nov 9
First Quarter
Nov 17
Full
Nov 25
Last Quarter

Hourly Weather History & Observations

Time (MDT) Temp. Windchill Dew Point Humidity Pressure Visibility Wind Dir Wind Speed Gust Speed Precip Events Conditions
12:00 AM 30.2 °F 22.6 °F 19.4 °F 64% 30.09 in 10.0 mi South 8.1 mph - N/A   Clear
12:20 AM 30.2 °F 23.4 °F 19.4 °F 64% 30.09 in 10.0 mi SSW 6.9 mph - N/A   Clear
12:41 AM 30.2 °F 20.8 °F 19.4 °F 64% 30.08 in 10.0 mi SSW 11.5 mph 18.4 mph N/A   Clear
1:01 AM 30.2 °F 19.3 °F 19.4 °F 64% 30.07 in 10.0 mi SSW 15.0 mph 23.0 mph N/A   Clear
1:21 AM 30.2 °F 21.3 °F 19.4 °F 64% 30.07 in 10.0 mi SSW 10.4 mph 21.9 mph N/A   Clear
1:40 AM 30.2 °F 21.9 °F 19.4 °F 64% 30.08 in 10.0 mi South 9.2 mph 19.6 mph N/A   Clear
2:00 AM 30.2 °F 21.3 °F 19.4 °F 64% 30.08 in 10.0 mi South 10.4 mph 21.9 mph N/A   Clear
2:20 AM 30.2 °F 21.9 °F 17.6 °F 60% 30.08 in 10.0 mi South 9.2 mph 18.4 mph N/A   Clear
2:42 AM 30.2 °F 21.3 °F 15.8 °F 55% 30.07 in 10.0 mi SSW 10.4 mph 26.5 mph N/A   Clear
3:01 AM 30.2 °F 22.6 °F 15.8 °F 55% 30.07 in 10.0 mi South 8.1 mph 19.6 mph N/A   Clear
3:22 AM 30.2 °F 21.3 °F 15.8 °F 55% 30.07 in 10.0 mi South 10.4 mph 19.6 mph N/A   Clear
3:41 AM 30.2 °F 22.6 °F 14.0 °F 51% 30.07 in 10.0 mi South 8.1 mph 18.4 mph N/A   Clear
4:00 AM 30.2 °F 21.3 °F 12.2 °F 47% 30.07 in 10.0 mi SSW 10.4 mph 21.9 mph N/A   Clear
4:21 AM 28.4 °F 18.5 °F 14.0 °F 55% 30.06 in 10.0 mi SSW 11.5 mph 21.9 mph N/A   Clear
4:40 AM 30.2 °F 21.3 °F 12.2 °F 47% 30.06 in 10.0 mi South 10.4 mph 18.4 mph N/A   Clear
5:01 AM 30.2 °F 21.9 °F 12.2 °F 47% 30.06 in 10.0 mi South 9.2 mph 19.6 mph N/A   Clear
5:21 AM 28.4 °F 20.4 °F 12.2 °F 51% 30.06 in 10.0 mi South 8.1 mph 19.6 mph N/A   Clear
5:41 AM 28.4 °F 19.7 °F 12.2 °F 51% 30.06 in 10.0 mi SSW 9.2 mph - N/A   Clear
6:01 AM 28.4 °F 19.7 °F 14.0 °F 55% 30.05 in 10.0 mi South 9.2 mph 18.4 mph N/A   Clear
6:21 AM 28.4 °F 18.5 °F 14.0 °F 55% 30.05 in 10.0 mi SSW 11.5 mph 20.7 mph N/A   Clear
6:41 AM 28.4 °F 19.1 °F 14.0 °F 55% 30.05 in 10.0 mi SSW 10.4 mph 20.7 mph N/A   Clear
7:01 AM 28.4 °F 17.0 °F 14.0 °F 55% 30.05 in 10.0 mi SSW 15.0 mph 21.9 mph N/A   Clear
7:21 AM 28.4 °F 19.7 °F 14.0 °F 55% 30.05 in 10.0 mi South 9.2 mph 18.4 mph N/A   Clear
7:41 AM 28.4 °F 22.2 °F 14.0 °F 55% 30.06 in 10.0 mi South 5.8 mph 21.9 mph N/A   Clear
8:01 AM 30.2 °F 21.9 °F 14.0 °F 51% 30.06 in 10.0 mi South 9.2 mph 20.7 mph N/A   Clear
8:21 AM 30.2 °F 21.9 °F 14.0 °F 51% 30.07 in 10.0 mi South 9.2 mph 19.6 mph N/A   Clear
8:41 AM 30.2 °F 21.9 °F 14.0 °F 51% 30.08 in 10.0 mi South 9.2 mph 18.4 mph N/A   Clear
9:01 AM 30.2 °F 22.6 °F 14.0 °F 51% 30.09 in 10.0 mi South 8.1 mph - N/A   Clear
9:20 AM 32.0 °F 24.8 °F 14.0 °F 48% 30.08 in 10.0 mi South 8.1 mph - N/A   Clear
9:41 AM 32.0 °F 24.2 °F 14.0 °F 48% 30.08 in 10.0 mi South 9.2 mph 24.2 mph N/A   Clear
10:00 AM 32.0 °F 24.2 °F 14.0 °F 48% 30.08 in 10.0 mi SSW 9.2 mph - N/A   Clear
10:21 AM 33.8 °F 27.0 °F 14.0 °F 44% 30.07 in 10.0 mi SSW 8.1 mph 19.6 mph N/A   Clear
10:41 AM 33.8 °F 25.8 °F 14.0 °F 44% 30.06 in 10.0 mi SSW 10.4 mph 23.0 mph N/A   Clear
11:01 AM 35.6 °F 28.6 °F 14.0 °F 41% 30.06 in 10.0 mi South 9.2 mph 16.1 mph N/A   Clear
11:21 AM 35.6 °F 28.6 °F 14.0 °F 41% 30.05 in 10.0 mi SSW 9.2 mph 20.7 mph N/A   Clear
11:41 AM 37.4 °F 31.4 °F 14.0 °F 38% 30.05 in 10.0 mi SSW 8.1 mph 23.0 mph N/A   Scattered Clouds
12:01 PM 39.2 °F 33.0 °F 14.0 °F 36% 30.05 in 10.0 mi SSW 9.2 mph 19.6 mph N/A   Scattered Clouds
12:21 PM 37.4 °F 31.4 °F 14.0 °F 38% 30.05 in 10.0 mi South 8.1 mph 17.3 mph N/A   Scattered Clouds
12:41 PM 39.2 °F 32.5 °F 14.0 °F 36% 30.04 in 10.0 mi SSW 10.4 mph 18.4 mph N/A   Scattered Clouds
1:01 PM 39.2 °F 34.2 °F 14.0 °F 36% 30.04 in 10.0 mi South 6.9 mph 17.3 mph N/A   Scattered Clouds
1:21 PM 39.2 °F 33.0 °F 15.8 °F 39% 30.04 in 10.0 mi SSW 9.2 mph 17.3 mph N/A   Scattered Clouds
1:41 PM 39.2 °F 33.0 °F 14.0 °F 36% 30.03 in 10.0 mi South 9.2 mph - N/A   Scattered Clouds
2:01 PM 37.4 °F 31.4 °F 14.0 °F 38% 30.02 in 10.0 mi SSW 8.1 mph 18.4 mph N/A   Scattered Clouds
2:21 PM 35.6 °F 29.2 °F 14.0 °F 41% 30.02 in 10.0 mi South 8.1 mph - N/A   Mostly Cloudy
2:41 PM 37.4 °F 31.4 °F 12.2 °F 36% 30.03 in 10.0 mi SSW 8.1 mph - N/A   Scattered Clouds
3:00 PM 37.4 °F 31.4 °F 12.2 °F 36% 30.03 in 10.0 mi South 8.1 mph - N/A   Mostly Cloudy
3:21 PM 37.4 °F 32.1 °F 12.2 °F 36% 30.02 in 10.0 mi SW 6.9 mph - N/A   Overcast
3:41 PM 35.6 °F 29.9 °F 10.4 °F 35% 30.02 in 10.0 mi SSW 6.9 mph - N/A   Mostly Cloudy
4:01 PM 35.6 °F 28.6 °F 10.4 °F 35% 30.02 in 10.0 mi SSW 9.2 mph 16.1 mph N/A   Mostly Cloudy
4:21 PM 33.8 °F 28.6 °F 12.2 °F 41% 30.03 in 10.0 mi SSW 5.8 mph - N/A   Mostly Cloudy
4:41 PM 33.8 °F 27.7 °F 14.0 °F 44% 30.03 in 10.0 mi SSW 6.9 mph - N/A   Mostly Cloudy
5:01 PM 32.0 °F 26.4 °F 14.0 °F 48% 30.05 in 10.0 mi South 5.8 mph - N/A   Overcast
5:21 PM 32.0 °F 25.6 °F 14.0 °F 48% 30.03 in 10.0 mi SW 6.9 mph - N/A   Overcast
5:41 PM 32.0 °F 26.4 °F 15.8 °F 51% 30.04 in 10.0 mi SSW 5.8 mph - N/A   Overcast
6:01 PM 32.0 °F 24.8 °F 14.0 °F 48% 30.03 in 10.0 mi SSW 8.1 mph 19.6 mph N/A   Overcast
6:20 PM 32.0 °F 26.4 °F 15.8 °F 51% 30.03 in 10.0 mi SSW 5.8 mph - N/A   Overcast
6:41 PM 32.0 °F 28.7 °F 15.8 °F 51% 30.05 in 10.0 mi South 3.5 mph - N/A   Overcast
7:01 PM 32.0 °F 27.5 °F 15.8 °F 51% 30.05 in 10.0 mi South 4.6 mph - N/A   Overcast
7:21 PM 32.0 °F 23.6 °F 15.8 °F 51% 30.03 in 10.0 mi SSW 10.4 mph 18.4 mph N/A   Overcast
7:40 PM 32.0 °F 25.6 °F 17.6 °F 55% 30.04 in 10.0 mi South 6.9 mph - N/A   Overcast
8:01 PM 32.0 °F 23.6 °F 17.6 °F 55% 30.03 in 10.0 mi SSW 10.4 mph 18.4 mph N/A   Overcast
8:20 PM 32.0 °F 24.2 °F 21.2 °F 64% 30.03 in 10.0 mi South 9.2 mph - N/A   Overcast
8:41 PM 30.2 °F 24.3 °F 23.0 °F 75% 30.02 in 10.0 mi SSW 5.8 mph - N/A   Overcast
9:00 PM 30.2 °F 23.4 °F 23.0 °F 75% 30.01 in 10.0 mi SSW 6.9 mph 16.1 mph N/A   Overcast
9:21 PM 30.2 °F 22.6 °F 24.8 °F 80% 30.02 in 10.0 mi SSW 8.1 mph 19.6 mph N/A   Overcast
9:41 PM 28.4 °F 22.2 °F 26.6 °F 93% 30.02 in 4.0 mi SSW 5.8 mph - N/A Snow Light Snow
10:00 PM 28.4 °F 22.2 °F 26.6 °F 93% 30.01 in 1.2 mi South 5.8 mph - N/A Snow Light Snow
10:21 PM 28.4 °F 23.3 °F 26.6 °F 93% 30.00 in 2.5 mi SSW 4.6 mph - N/A   Overcast
10:41 PM 28.4 °F 22.2 °F 26.6 °F 93% 29.98 in 2.0 mi South 5.8 mph - N/A   Overcast
11:01 PM 28.4 °F 20.4 °F 26.6 °F 93% 29.97 in 3.0 mi SSW 8.1 mph - N/A   Overcast
11:21 PM 28.4 °F 19.7 °F 26.6 °F 93% 29.94 in 4.0 mi SSW 9.2 mph 20.7 mph N/A   Overcast
11:41 PM 28.4 °F 19.7 °F 26.6 °F 93% 29.93 in 2.5 mi SSW 9.2 mph 23.0 mph N/A Snow , Thunderstorm Light Thunderstorms and Snow